Location: Amherst
(42.3800°N, 72.5240°W)
Time: 11:07:10
(UTC-04:00)

ISS - Pass Details

Date: 20 May 2021
Orbit: 417 x 422 km, 51.6° (Epoch: 14 June)

Event Time Altitude Azimuth Distance (km) Brightness Sun altitude
Rises 23:56:05 0° 304° (NW) 2,369 0.7 -26.5°
Reaches altitude 10° 23:58:35 10° 323° (NW) 1,505 -0.1 -26.6°
Maximum altitude 00:01:09 20° 12° (NNE) 1,049 -1.1 -26.7°
Enters shadow 00:01:46 19° 27° (NNE) 1,081 -1.2 -26.7°
